13-11-2023, 00:00:05,    152,    0.0,    7.3,   0.00,   0.00, 1001.4,    0.4, -999.0
13-11-2023, 00:00:14,    151,    0.0,    7.3,   0.00,   0.00, 1001.4,    0.6, -999.0
13-11-2023, 00:00:24,    152,    0.0,    7.3,   0.00,   0.00, 1001.4,    0.4, -999.0
13-11-2023, 00:00:34,    152,    0.0,    7.4,   0.00,   0.00, 1001.4,    0.3, -999.0
13-11-2023, 00:00:44,    151,    0.0,    7.4,   0.00,   0.00, 1001.4,    0.3, -999.0
13-11-2023, 00:00:54,    151,    0.0,    7.4,   0.00,   0.00, 1001.4,    0.2, -999.0
13-11-2023, 00:01:04,    152,    0.0,    7.4,   0.00,   0.00, 1001.4,    0.3, -999.0
13-11-2023, 00:01:14,    152,    0.0,    7.4,   0.00,   0.00, 1001.4,    0.3, -999.0
13-11-2023, 00:01:24,    152,    0.0,    7.4,   0.00,   0.00, 1001.4,    0.3, -999.0
13-11-2023, 00:01:34,    152,    0.0,    7.4,   0.01,   0.01, 1001.4,    0.4, -999.0
13-11-2023, 00:01:44,    148,    0.0,    7.4,   0.00,   0.00, 1001.5,    0.3, -999.0
13-11-2023, 00:01:54,    151,    0.0,    7.3,   0.00,   0.00, 1001.4,    0.3, -999.0
13-11-2023, 00:02:04,    152,    0.0,    7.4,   0.00,   0.00, 1001.4,    0.5, -999.0
13-11-2023, 00:02:14,    152,    0.0,    7.2,   0.00,   0.00, 1001.5,    0.3, -999.0
13-11-2023, 00:02:24,    151,    0.0,    7.3,   0.00,   0.00, 1001.5,    0.6, -999.0
13-11-2023, 00:02:34,    156,    0.0,    7.4,   0.00,   0.00, 1001.4,    0.4, -999.0
13-11-2023, 00:02:44,    152,    0.0,    7.4,   0.00,   0.00, 1001.5,    0.3, -999.0
13-11-2023, 00:02:54,    152,    0.0,    7.4,   0.00,   0.00, 1001.5,    0.3, -999.0
13-11-2023, 00:03:04,    152,    0.0,    7.4,   0.00,   0.00, 1001.5,    0.3, -999.0
13-11-2023, 00:03:14,    152,    0.0,    7.4,   0.00,   0.00, 1001.5,    0.2, -999.0
13-11-2023, 00:03:24,    152,    0.0,    7.4,   0.00,   0.00, 1001.5,    0.4, -999.0
13-11-2023, 00:03:34,    152,    0.0,    7.4,   0.00,   0.00, 1001.5,    0.3, -999.0
13-11-2023, 00:03:44,    152,    0.0,    7.4,   0.00,   0.00, 1001.5,    0.4, -999.0
13-11-2023, 00:03:54,    152,    0.0,    7.3,   0.00,   0.00, 1001.5,    0.3, -999.0
13-11-2023, 00:04:04,    152,    0.0,    7.4,   0.00,   0.00, 1001.5,    0.3, -999.0
13-11-2023, 00:04:14,    152,    0.0,    7.4,   0.01,   0.01, 1001.5,    0.3, -999.0
13-11-2023, 00:04:24,    152,    0.0,    7.4,   0.00,   0.00, 1001.5,    0.3, -999.0
13-11-2023, 00:04:33,    152,    0.0,    7.4,   0.00,   0.00, 1001.5,    0.2, -999.0
13-11-2023, 00:04:44,    152,    0.0,    7.4,   0.00,   0.00, 1001.5,    0.3, -999.0
13-11-2023, 00:04:54,    152,    0.0,    7.4,   0.00,   0.00, 1001.5,    0.3, -999.0
13-11-2023, 00:05:03,    151,    0.0,    7.4,   0.00,   0.00, 1001.5,    0.3, -999.0
13-11-2023, 00:05:13,    152,    0.0,    7.3,   0.00,   0.00, 1001.5,    0.4, -999.0
13-11-2023, 00:05:24,    152,    0.0,    7.4,   0.00,   0.00, 1001.5,    0.2, -999.0
13-11-2023, 00:05:34,    152,    0.0,    7.4,   0.00,   0.00, 1001.5,    0.2, -999.0
13-11-2023, 00:05:43,    152,    0.0,    7.5,   0.00,   0.00, 1001.5,    0.4, -999.0
13-11-2023, 00:05:54,    152,    0.0,    7.4,   0.00,   0.00, 1001.5,    0.4, -999.0
13-11-2023, 00:06:04,    152,    0.0,    7.5,   0.00,   0.00, 1001.5,    0.3, -999.0
13-11-2023, 00:06:13,    152,    0.0,    7.5,   0.00,   0.00, 1001.5,    0.4, -999.0
13-11-2023, 00:06:23,    152,    0.0,    7.4,   0.00,   0.00, 1001.5,    0.3, -999.0
13-11-2023, 00:06:34,    151,    0.0,    7.4,   0.00,   0.00, 1001.5,    0.3, -999.0
13-11-2023, 00:06:43,    152,    0.0,    7.5,   0.00,   0.00, 1001.5,    0.3, -999.0
13-11-2023, 00:06:53,    152,    0.0,    7.4,   0.01,   0.01, 1001.5,    0.4, -999.0
13-11-2023, 00:07:03,    151,    0.0,    7.4,   0.00,   0.00, 1001.5,    0.2, -999.0
13-11-2023, 00:07:13,    152,    0.0,    7.5,   0.00,   0.00, 1001.5,    0.5, -999.0
13-11-2023, 00:07:23,    152,    0.0,    7.5,   0.00,   0.00, 1001.4,    0.4, -999.0
13-11-2023, 00:07:33,    152,    0.0,    7.5,   0.00,   0.00, 1001.4,    0.3, -999.0
13-11-2023, 00:07:43,    152,    0.0,    7.5,   0.00,   0.00, 1001.4,    0.3, -999.0
13-11-2023, 00:07:53,    152,    0.0,    7.5,   0.00,   0.00, 1001.4,    0.3, -999.0
13-11-2023, 00:08:03,    152,    0.0,    7.5,   0.00,   0.00, 1001.4,    0.4, -999.0
13-11-2023, 00:08:13,    152,    0.0,    7.6,   0.00,   0.00, 1001.4,    0.3, -999.0
13-11-2023, 00:08:23,    151,    0.0,    7.6,   0.00,   0.00, 1001.4,    0.3, -999.0
13-11-2023, 00:08:33,    152,    0.0,    7.6,   0.00,   0.00, 1001.4,    0.3, -999.0
13-11-2023, 00:08:43,    152,    0.0,    7.6,   0.00,   0.00, 1001.4,    0.3, -999.0
13-11-2023, 00:08:53,    152,    0.0,    7.6,   0.00,   0.00, 1001.4,    0.3, -999.0
13-11-2023, 00:09:03,    151,    0.0,    7.6,   0.00,   0.00, 1001.4,    0.4, -999.0
13-11-2023, 00:09:13,    152,    0.0,    7.5,   0.00,   0.00, 1001.4,    0.4, -999.0
13-11-2023, 00:09:23,    152,    0.0,    7.5,   0.01,   0.01, 1001.4,    0.3, -999.0
13-11-2023, 00:09:33,    152,    0.0,    7.4,   0.00,   0.00, 1001.4,    0.2, -999.0
13-11-2023, 00:09:43,    152,    0.0,    7.5,   0.00,   0.00, 1001.4,    0.3, -999.0
13-11-2023, 00:09:53,    152,    0.0,    7.5,   0.00,   0.00, 1001.4,    0.4, -999.0
13-11-2023, 00:10:03,    151,    0.0,    7.4,   0.00,   0.00, 1001.4,    0.3, -999.0
13-11-2023, 00:10:13,    152,    0.0,    7.5,   0.00,   0.00, 1001.5,    0.3, -999.0
13-11-2023, 00:10:23,    152,    0.0,    7.5,   0.00,   0.00, 1001.4,    0.3, -999.0
13-11-2023, 00:10:33,    152,    0.0,    7.5,   0.00,   0.00, 1001.4,    0.2, -999.0
13-11-2023, 00:10:43,    151,    0.0,    7.4,   0.00,   0.00, 1001.4,    0.3, -999.0
13-11-2023, 00:10:52,    152,    0.0,    7.4,   0.00,   0.00, 1001.4,    0.4, -999.0
13-11-2023, 00:11:03,    152,    0.0,    7.5,   0.00,   0.00, 1001.4,    0.1, -999.0
13-11-2023, 00:11:13,    152,    0.0,    7.5,   0.00,   0.00, 1001.4,    0.3, -999.0
13-11-2023, 00:11:23,    151,    0.0,    7.5,   0.00,   0.00, 1001.4,    0.3, -999.0
13-11-2023, 00:11:32,    152,    0.0,    7.4,   0.00,   0.00, 1001.4,    0.2, -999.0
13-11-2023, 00:11:43,    152,    0.0,    7.6,   0.00,   0.00, 1001.4,    0.3, -999.0
13-11-2023, 00:11:53,    152,    0.0,    7.5,   0.01,   0.01, 1001.4,    0.4, -999.0
13-11-2023, 00:12:02,    152,    0.0,    7.5,   0.00,   0.00, 1001.4,    0.2, -999.0
13-11-2023, 00:12:12,    152,    0.0,    7.5,   0.00,   0.00, 1001.4,    0.3, -999.0
13-11-2023, 00:12:23,    152,    0.0,    7.5,   0.00,   0.00, 1001.4,    0.3, -999.0
13-11-2023, 00:12:32,    152,    0.0,    7.5,   0.00,   0.00, 1001.4,    0.4, -999.0
13-11-2023, 00:12:42,    151,    0.0,    7.5,   0.00,   0.00, 1001.4,    0.3, -999.0
13-11-2023, 00:12:52,    152,    0.0,    7.5,   0.00,   0.00, 1001.4,    0.2, -999.0
13-11-2023, 00:13:03,    152,    0.0,    7.5,   0.00,   0.00, 1001.4,    0.3, -999.0
13-11-2023, 00:13:12,    152,    0.0,    7.6,   0.00,   0.00, 1001.4,    0.3, -999.0
13-11-2023, 00:13:22,    152,    0.0,    7.6,   0.00,   0.00, 1001.4,    0.4, -999.0
13-11-2023, 00:13:32,    152,    0.0,    7.6,   0.00,   0.00, 1001.4,    0.4, -999.0
13-11-2023, 00:13:42,    152,    0.0,    7.6,   0.00,   0.00, 1001.4,    0.3, -999.0
13-11-2023, 00:13:52,    151,    0.0,    7.5,   0.00,   0.00, 1001.4,    0.3, -999.0
13-11-2023, 00:14:02,    152,    0.0,    7.5,   0.00,   0.00, 1001.4,    0.3, -999.0
13-11-2023, 00:14:12,    151,    0.0,    7.5,   0.00,   0.00, 1001.4,    0.2, -999.0
13-11-2023, 00:14:22,    152,    0.0,    7.4,   0.01,   0.01, 1001.4,    0.4, -999.0
13-11-2023, 00:14:32,    151,    0.0,    7.5,   0.00,   0.00, 1001.4,    0.3, -999.0
13-11-2023, 00:14:42,    151,    0.0,    7.5,   0.00,   0.00, 1001.4,    0.2, -999.0
13-11-2023, 00:14:52,    152,    0.0,    7.5,   0.00,   0.00, 1001.4,    0.4, -999.0
13-11-2023, 00:15:02,    152,    0.0,    7.5,   0.00,   0.00, 1001.4,    0.3, -999.0
13-11-2023, 00:15:12,    152,    0.0,    7.5,   0.00,   0.00, 1001.4,    0.3, -999.0
13-11-2023, 00:15:22,    152,    0.0,    7.6,   0.00,   0.00, 1001.3,    0.2, -999.0
13-11-2023, 00:15:32,    152,    0.0,    7.6,   0.00,   0.00, 1001.3,    0.2, -999.0
13-11-2023, 00:15:42,    152,    0.0,    7.6,   0.00,   0.00, 1001.4,    0.4, -999.0
13-11-2023, 00:15:52,    152,    0.0,    7.6,   0.00,   0.00, 1001.3,    0.2, -999.0
13-11-2023, 00:16:02,    152,    0.0,    7.5,   0.00,   0.00, 1001.3,    0.5, -999.0
13-11-2023, 00:16:12,    152,    0.0,    7.5,   0.00,   0.00, 1001.3,    0.5, -999.0
13-11-2023, 00:16:22,    151,    0.0,    7.6,   0.00,   0.00, 1001.3,    0.3, -999.0
13-11-2023, 00:16:32,    151,    0.0,    7.7,   0.00,   0.00, 1001.3,    0.2, -999.0
13-11-2023, 00:16:42,    152,    0.0,    7.6,   0.00,   0.00, 1001.3,    0.3, -999.0
13-11-2023, 00:16:52,    152,    0.0,    7.7,   0.01,   0.01, 1001.3,    0.5, -999.0
13-11-2023, 00:17:02,    152,    0.0,    7.6,   0.00,   0.00, 1001.3,    0.3, -999.0
13-11-2023, 00:17:12,    152,    0.0,    7.6,   0.00,   0.00, 1001.3,    0.4, -999.0
13-11-2023, 00:17:21,    152,    0.0,    7.7,   0.00,   0.00, 1001.3,    0.3, -999.0
13-11-2023, 00:17:32,    151,    0.0,    7.5,   0.00,   0.00, 1001.3,    0.3, -999.0
13-11-2023, 00:17:42,    152,    0.0,    7.6,   0.00,   0.00, 1001.3,    0.4, -999.0
13-11-2023, 00:17:52,    151,    0.0,    7.7,   0.00,   0.00, 1001.3,    0.3, -999.0
13-11-2023, 00:18:01,    154,    0.0,    7.6,   0.00,   0.00, 1001.3,    0.2, -999.0
13-11-2023, 00:18:12,    151,    0.0,    7.6,   0.00,   0.00, 1001.3,    0.4, -999.0
13-11-2023, 00:18:22,    152,    0.0,    7.5,   0.00,   0.00, 1001.3,    0.3, -999.0
13-11-2023, 00:18:31,    152,    0.0,    7.5,   0.00,   0.00, 1001.3,    0.3, -999.0
13-11-2023, 00:18:41,    152,    0.0,    7.5,   0.00,   0.00, 1001.3,    0.4, -999.0
13-11-2023, 00:18:52,    152,    0.0,    7.6,   0.00,   0.00, 1001.2,    0.3, -999.0
13-11-2023, 00:19:01,    152,    0.0,    7.6,   0.00,   0.00, 1001.3,    0.5, -999.0
13-11-2023, 00:19:11,    151,    0.0,    7.4,   0.00,   0.00, 1001.3,    0.2, -999.0
13-11-2023, 00:19:22,    151,    0.0,    7.5,   0.01,   0.01, 1001.3,    0.2, -999.0
13-11-2023, 00:19:31,    151,    0.0,    7.6,   0.00,   0.00, 1001.3,    0.4, -999.0
13-11-2023, 00:19:41,    152,    0.0,    7.7,   0.00,   0.00, 1001.3,    0.3, -999.0
13-11-2023, 00:19:51,    151,    0.0,    7.7,   0.00,   0.00, 1001.3,    0.5, -999.0
13-11-2023, 00:20:02,    151,    0.0,    7.6,   0.00,   0.00, 1001.3,    0.3, -999.0
13-11-2023, 00:20:11,    151,    0.0,    7.4,   0.00,   0.00, 1001.3,    0.2, -999.0
13-11-2023, 00:20:21,    151,    0.0,    7.5,   0.00,   0.00, 1001.2,    0.3, -999.0
13-11-2023, 00:20:31,    151,    0.0,    7.6,   0.00,   0.00, 1001.2,    0.4, -999.0
13-11-2023, 00:20:41,    151,    0.0,    7.6,   0.00,   0.00, 1001.2,    0.3, -999.0
13-11-2023, 00:20:51,    151,    0.0,    7.5,   0.00,   0.00, 1001.3,    0.3, -999.0
13-11-2023, 00:21:01,    151,    0.0,    7.5,   0.00,   0.00, 1001.3,    0.5, -999.0
13-11-2023, 00:21:11,    151,    0.0,    7.5,   0.00,   0.00, 1001.3,    0.3, -999.0
13-11-2023, 00:21:21,    151,    0.0,    7.6,   0.00,   0.00, 1001.2,    0.3, -999.0
13-11-2023, 00:21:31,    151,    0.0,    7.7,   0.00,   0.00, 1001.3,    0.2, -999.0
13-11-2023, 00:21:41,    151,    0.0,    7.6,   0.00,   0.00, 1001.3,    0.2, -999.0
13-11-2023, 00:21:51,    151,    0.0,    7.6,   0.00,   0.00, 1001.3,    0.3, -999.0
13-11-2023, 00:22:01,    152,    0.0,    7.5,   0.01,   0.01, 1001.3,    0.3, -999.0
13-11-2023, 00:22:11,    151,    0.0,    7.6,   0.00,   0.00, 1001.3,    0.3, -999.0
13-11-2023, 00:22:21,    151,    0.0,    7.6,   0.00,   0.00, 1001.3,    0.4, -999.0
13-11-2023, 00:22:31,    151,    0.0,    7.6,   0.00,   0.00, 1001.3,    0.4, -999.0
13-11-2023, 00:22:41,    151,    0.0,    7.5,   0.00,   0.00, 1001.3,    0.3, -999.0
13-11-2023, 00:22:51,    150,    0.0,    7.5,   0.00,   0.00, 1001.3,    0.3, -999.0
13-11-2023, 00:23:01,    151,    0.0,    7.6,   0.00,   0.00, 1001.3,    0.5, -999.0
13-11-2023, 00:23:11,    151,    0.0,    7.6,   0.00,   0.00, 1001.3,    0.3, -999.0
13-11-2023, 00:23:21,    151,    0.0,    7.5,   0.00,   0.00, 1001.3,    0.3, -999.0
13-11-2023, 00:23:31,    151,    0.0,    7.5,   0.00,   0.00, 1001.3,    0.2, -999.0
13-11-2023, 00:23:41,    151,    0.0,    7.5,   0.00,   0.00, 1001.3,    0.4, -999.0
13-11-2023, 00:23:51,    150,    0.0,    7.5,   0.00,   0.00, 1001.3,    0.3, -999.0
13-11-2023, 00:24:01,    151,    0.0,    7.5,   0.00,   0.00, 1001.3,    0.2, -999.0
13-11-2023, 00:24:11,    150,    0.0,    7.5,   0.00,   0.00, 1001.3,    0.2, -999.0
13-11-2023, 00:24:20,    150,    0.0,    7.6,   0.00,   0.00, 1001.3,    0.4, -999.0
13-11-2023, 00:24:31,    151,    0.0,    7.5,   0.01,   0.01, 1001.3,    0.4, -999.0
13-11-2023, 00:24:41,    151,    0.0,    7.5,   0.00,   0.00, 1001.4,    0.3, -999.0
13-11-2023, 00:24:51,    152,    0.0,    7.5,   0.00,   0.00, 1001.3,    0.2, -999.0
13-11-2023, 00:25:00,    150,    0.0,    7.5,   0.00,   0.00, 1001.4,    0.2, -999.0
13-11-2023, 00:25:11,    151,    0.0,    7.5,   0.00,   0.00, 1001.3,    0.3, -999.0
13-11-2023, 00:25:21,    151,    0.0,    7.5,   0.00,   0.00, 1001.4,    0.4, -999.0
13-11-2023, 00:25:30,    151,    0.0,    7.5,   0.00,   0.00, 1001.4,    0.3, -999.0
13-11-2023, 00:25:40,    151,    0.0,    7.4,   0.00,   0.00, 1001.4,    0.3, -999.0
13-11-2023, 00:25:51,    151,    0.0,    7.4,   0.00,   0.00, 1001.4,    0.3, -999.0
13-11-2023, 00:26:00,    151,    0.0,    7.3,   0.00,   0.00, 1001.3,    0.4, -999.0
13-11-2023, 00:26:10,    151,    0.0,    7.5,   0.00,   0.00, 1001.3,    0.3, -999.0
13-11-2023, 00:26:20,    153,    0.0,    7.5,   0.00,   0.00, 1001.3,    0.3, -999.0
13-11-2023, 00:26:31,    151,    0.0,    7.5,   0.00,   0.00, 1001.3,    0.4, -999.0
13-11-2023, 00:26:40,    150,    0.0,    7.5,   0.00,   0.00, 1001.3,    0.4, -999.0
13-11-2023, 00:26:50,    151,    0.0,    7.5,   0.00,   0.00, 1001.3,    0.3, -999.0
13-11-2023, 00:27:00,    151,    0.0,    7.5,   0.00,   0.00, 1001.3,    0.3, -999.0
13-11-2023, 00:27:10,    151,    0.0,    7.5,   0.01,   0.01, 1001.3,    0.5, -999.0
13-11-2023, 00:27:20,    151,    0.0,    7.5,   0.00,   0.00, 1001.3,    0.3, -999.0
13-11-2023, 00:27:30,    151,    0.0,    7.5,   0.00,   0.00, 1001.3,    0.5, -999.0
13-11-2023, 00:27:40,    151,    0.0,    7.5,   0.00,   0.00, 1001.3,    0.3, -999.0
13-11-2023, 00:27:50,    150,    0.0,    7.5,   0.00,   0.00, 1001.2,    0.6, -999.0
13-11-2023, 00:28:00,    151,    0.0,    7.5,   0.00,   0.00, 1001.3,    0.6, -999.0
13-11-2023, 00:28:10,    150,    0.0,    7.5,   0.00,   0.00, 1001.3,    0.4, -999.0
13-11-2023, 00:28:20,    151,    0.0,    7.4,   0.00,   0.00, 1001.2,    0.4, -999.0
13-11-2023, 00:28:30,    151,    0.0,    7.4,   0.00,   0.00, 1001.3,    0.3, -999.0
13-11-2023, 00:28:40,    150,    0.0,    7.4,   0.00,   0.00, 1001.2,    0.4, -999.0
13-11-2023, 00:28:50,    151,    0.0,    7.5,   0.00,   0.00, 1001.3,    0.2, -999.0
13-11-2023, 00:29:00,    150,    0.0,    7.5,   0.00,   0.00, 1001.2,    0.3, -999.0
13-11-2023, 00:29:10,    150,    0.0,    7.4,   0.00,   0.00, 1001.2,    0.5, -999.0
13-11-2023, 00:29:20,    150,    0.0,    7.5,   0.00,   0.00, 1001.2,    0.3, -999.0
13-11-2023, 00:29:30,    151,    0.0,    7.4,   0.00,   0.00, 1001.2,    0.3, -999.0
13-11-2023, 00:29:40,    150,    0.0,    7.4,   0.00,   0.00, 1001.2,    0.3, -999.0
13-11-2023, 00:29:50,    151,    0.0,    7.4,   0.00,   0.00, 1001.2,    0.4, -999.0
13-11-2023, 00:30:00,    151,    0.0,    7.4,   0.01,   0.01, 1001.2,    0.2, -999.0
13-11-2023, 00:30:10,    151,    0.0,    7.4,   0.00,   0.00, 1001.2,    0.4, -999.0
13-11-2023, 00:30:20,    151,    0.0,    7.5,   0.00,   0.00, 1001.2,    0.3, -999.0
13-11-2023, 00:30:30,    150,    0.0,    7.4,   0.00,   0.00, 1001.2,    0.3, -999.0
13-11-2023, 00:30:40,    150,    0.0,    7.4,   0.00,   0.00, 1001.2,    0.3, -999.0
13-11-2023, 00:30:49,    150,    0.0,    7.4,   0.00,   0.00, 1001.2,    0.3, -999.0
13-11-2023, 00:31:00,    151,    0.0,    7.4,   0.00,   0.00, 1001.2,    0.3, -999.0
13-11-2023, 00:31:10,    152,    0.0,    7.5,   0.00,   0.00, 1001.2,    0.3, -999.0
13-11-2023, 00:31:19,    152,    0.0,    7.5,   0.00,   0.00, 1001.2,    0.3, -999.0
13-11-2023, 00:31:29,    153,    0.0,    7.4,   0.00,   0.00, 1001.2,    0.4, -999.0
13-11-2023, 00:31:40,    152,    0.0,    7.4,   0.00,   0.00, 1001.2,    0.3, -999.0
13-11-2023, 00:31:50,    152,    0.0,    7.5,   0.00,   0.00, 1001.2,    0.2, -999.0
13-11-2023, 00:31:59,    152,    0.0,    7.4,   0.00,   0.00, 1001.2,    0.3, -999.0
13-11-2023, 00:32:10,    152,    0.0,    7.4,   0.00,   0.00, 1001.2,    0.4, -999.0
13-11-2023, 00:32:20,    152,    0.0,    7.5,   0.00,   0.00, 1001.2,    0.3, -999.0
13-11-2023, 00:32:29,    152,    0.0,    7.5,   0.00,   0.00, 1001.2,    0.2, -999.0
13-11-2023, 00:32:39,    152,    0.0,    7.4,   0.00,   0.00, 1001.2,    0.2, -999.0
13-11-2023, 00:32:50,    152,    0.0,    7.5,   0.00,   0.00, 1001.2,    0.4, -999.0
13-11-2023, 00:32:59,    152,    0.0,    7.4,   0.01,   0.01, 1001.2,    0.3, -999.0
13-11-2023, 00:33:09,    152,    0.0,    7.4,   0.00,   0.00, 1001.2,    0.2, -999.0
13-11-2023, 00:33:19,    152,    0.0,    7.5,   0.00,   0.00, 1001.2,    0.2, -999.0
13-11-2023, 00:33:29,    152,    0.0,    7.5,   0.00,   0.00, 1001.2,    0.3, -999.0
13-11-2023, 00:33:39,    152,    0.0,    7.5,   0.00,   0.00, 1001.2,    0.4, -999.0
13-11-2023, 00:33:49,    152,    0.0,    7.5,   0.00,   0.00, 1001.2,    0.4, -999.0
13-11-2023, 00:33:59,    152,    0.0,    7.5,   0.00,   0.00, 1001.1,    0.5, -999.0
13-11-2023, 00:34:09,    152,    0.0,    7.5,   0.00,   0.00, 1001.1,    0.1, -999.0
13-11-2023, 00:34:19,    152,    0.0,    7.5,   0.00,   0.00, 1001.1,    0.4, -999.0
13-11-2023, 00:34:29,    152,    0.0,    7.5,   0.00,   0.00, 1001.2,    0.3, -999.0
13-11-2023, 00:34:39,    152,    0.0,    7.5,   0.00,   0.00, 1001.1,    0.4, -999.0
13-11-2023, 00:34:49,    152,    0.0,    7.4,   0.00,   0.00, 1001.1,    0.2, -999.0
13-11-2023, 00:34:59,    152,    0.0,    7.5,   0.00,   0.00, 1001.2,    0.2, -999.0
13-11-2023, 00:35:09,    152,    0.0,    7.6,   0.00,   0.00, 1001.1,    0.5, -999.0
13-11-2023, 00:35:19,    152,    0.0,    7.5,   0.00,   0.00, 1001.2,    0.3, -999.0
13-11-2023, 00:35:29,    152,    0.0,    7.5,   0.00,   0.00, 1001.1,    0.2, -999.0
13-11-2023, 00:35:39,    152,    0.0,    7.5,   0.01,   0.01, 1001.1,    0.3, -999.0
13-11-2023, 00:35:49,    151,    0.0,    7.5,   0.00,   0.00, 1001.1,    0.2, -999.0
13-11-2023, 00:35:59,    151,    0.0,    7.5,   0.00,   0.00, 1001.1,    0.4, -999.0
13-11-2023, 00:36:09,    151,    0.0,    7.5,   0.00,   0.00, 1001.1,    0.4, -999.0
13-11-2023, 00:36:19,    151,    0.0,    7.4,   0.00,   0.00, 1001.1,    0.3, -999.0
13-11-2023, 00:36:29,    150,    0.0,    7.5,   0.00,   0.00, 1001.1,    0.5, -999.0
13-11-2023, 00:36:39,    151,    0.0,    7.5,   0.00,   0.00, 1001.1,    0.3, -999.0
13-11-2023, 00:36:49,    151,    0.0,    7.5,   0.00,   0.00, 1001.1,    0.2, -999.0
13-11-2023, 00:36:59,    152,    0.0,    7.5,   0.00,   0.00, 1001.1,    0.3, -999.0
13-11-2023, 00:37:09,    151,    0.0,    7.5,   0.00,   0.00, 1001.1,    0.3, -999.0
13-11-2023, 00:37:19,    151,    0.0,    7.4,   0.00,   0.00, 1001.0,    0.4, -999.0
13-11-2023, 00:37:29,    151,    0.0,    7.5,   0.00,   0.00, 1001.0,    0.4, -999.0
13-11-2023, 00:37:39,    151,    0.0,    7.4,   0.00,   0.00, 1001.1,    0.4, -999.0
13-11-2023, 00:37:48,    151,    0.0,    7.6,   0.00,   0.00, 1001.1,    0.3, -999.0
13-11-2023, 00:37:59,    151,    0.0,    7.5,   0.00,   0.00, 1001.1,    0.5, -999.0
13-11-2023, 00:38:09,    151,    0.0,    7.5,   0.01,   0.01, 1001.1,    0.2, -999.0
13-11-2023, 00:38:18,    151,    0.0,    7.5,   0.00,   0.00, 1001.1,    0.3, -999.0
13-11-2023, 00:38:28,    151,    0.0,    7.5,   0.00,   0.00, 1001.1,    0.4, -999.0
13-11-2023, 00:38:39,    152,    0.0,    7.5,   0.00,   0.00, 1001.0,    0.2, -999.0
13-11-2023, 00:38:48,    151,    0.0,    7.5,   0.00,   0.00, 1001.1,    0.3, -999.0
13-11-2023, 00:38:58,    151,    0.0,    7.5,   0.00,   0.00, 1001.0,    0.3, -999.0
13-11-2023, 00:39:09,    151,    0.0,    7.5,   0.00,   0.00, 1001.1,    0.3, -999.0
13-11-2023, 00:39:18,    151,    0.0,    7.5,   0.00,   0.00, 1001.1,    0.3, -999.0
13-11-2023, 00:39:28,    151,    0.0,    7.5,   0.00,   0.00, 1001.0,    0.3, -999.0
13-11-2023, 00:39:38,    151,    0.0,    7.5,   0.00,   0.00, 1001.0,    0.3, -999.0
13-11-2023, 00:39:49,    151,    0.0,    7.4,   0.00,   0.00, 1001.0,    0.3, -999.0
13-11-2023, 00:39:58,    151,    0.0,    7.5,   0.00,   0.00, 1001.1,    0.4, -999.0
13-11-2023, 00:40:08,    151,    0.0,    7.5,   0.00,   0.00, 1001.0,    0.2, -999.0
13-11-2023, 00:40:18,    151,    0.0,    7.3,   0.00,   0.00, 1001.0,    0.5, -999.0
13-11-2023, 00:40:28,    151,    0.0,    7.4,   0.00,   0.00, 1001.0,    0.2, -999.0
13-11-2023, 00:40:38,    152,    0.0,    7.4,   0.01,   0.01, 1001.0,    0.4, -999.0
13-11-2023, 00:40:48,    151,    0.0,    7.4,   0.00,   0.00, 1001.0,    0.1, -999.0
13-11-2023, 00:40:58,    151,    0.0,    7.5,   0.00,   0.00, 1001.0,    0.4, -999.0
13-11-2023, 00:41:08,    151,    0.0,    7.5,   0.00,   0.00, 1001.0,    0.2, -999.0
13-11-2023, 00:41:18,    150,    0.0,    7.4,   0.00,   0.00, 1001.0,    0.4, -999.0
13-11-2023, 00:41:28,    151,    0.0,    7.4,   0.00,   0.00, 1001.0,    0.1, -999.0
13-11-2023, 00:41:39,    150,    0.0,    7.4,   0.00,   0.00, 1001.0,    0.2, -999.0
13-11-2023, 00:41:48,    150,    0.0,    7.4,   0.00,   0.00, 1001.0,    0.1, -999.0
13-11-2023, 00:41:58,    151,    0.0,    7.5,   0.00,   0.00, 1001.0,    0.6, -999.0
13-11-2023, 00:42:08,    154,    0.0,    7.4,   0.00,   0.00, 1001.0,    0.5, -999.0
13-11-2023, 00:42:18,    153,    0.0,    7.4,   0.00,   0.00, 1001.0,    0.3, -999.0
13-11-2023, 00:42:28,    153,    0.0,    7.5,   0.00,   0.00, 1001.0,    0.1, -999.0
13-11-2023, 00:42:38,    153,    0.0,    7.4,   0.00,   0.00, 1001.0,    0.4, -999.0
13-11-2023, 00:42:48,    153,    0.0,    7.4,   0.00,   0.00, 1001.0,    0.2, -999.0
13-11-2023, 00:42:58,    153,    0.0,    7.5,   0.00,   0.00, 1001.0,    0.5, -999.0
13-11-2023, 00:43:08,    153,    0.0,    7.4,   0.00,   0.00, 1001.0,    0.3, -999.0
13-11-2023, 00:43:18,    152,    0.0,    7.5,   0.01,   0.01, 1001.0,    0.3, -999.0
13-11-2023, 00:43:28,    153,    0.0,    7.5,   0.00,   0.00, 1001.0,    0.3, -999.0
13-11-2023, 00:43:38,    153,    0.0,    7.6,   0.00,   0.00, 1001.0,    0.2, -999.0
13-11-2023, 00:43:48,    153,    0.0,    7.5,   0.00,   0.00, 1000.9,    0.2, -999.0
13-11-2023, 00:43:58,    153,    0.0,    7.4,   0.00,   0.00, 1000.9,    0.5, -999.0
13-11-2023, 00:44:08,    153,    0.0,    7.4,   0.00,   0.00, 1000.9,    0.2, -999.0
13-11-2023, 00:44:17,    153,    0.0,    7.5,   0.00,   0.00, 1000.9,    0.3, -999.0
13-11-2023, 00:44:28,    149,    0.0,    7.5,   0.00,   0.00, 1000.9,    0.3, -999.0
13-11-2023, 00:44:38,    150,    0.0,    7.5,   0.00,   0.00, 1000.9,    0.3, -999.0
13-11-2023, 00:44:48,    150,    0.0,    7.5,   0.00,   0.00, 1000.8,    0.3, -999.0
13-11-2023, 00:44:57,    150,    0.0,    7.5,   0.00,   0.00, 1000.8,    0.4, -999.0
13-11-2023, 00:45:08,    149,    0.0,    7.5,   0.00,   0.00, 1000.8,    0.3, -999.0
13-11-2023, 00:45:18,    150,    0.0,    7.5,   0.00,   0.00, 1000.8,    0.3, -999.0
13-11-2023, 00:45:27,    149,    0.0,    7.5,   0.00,   0.00, 1000.8,    0.3, -999.0
13-11-2023, 00:45:37,    149,    0.0,    7.5,   0.00,   0.00, 1000.8,    0.1, -999.0
13-11-2023, 00:45:48,    152,    0.0,    7.5,   0.01,   0.01, 1000.8,    0.3, -999.0
13-11-2023, 00:45:57,    152,    0.0,    7.4,   0.00,   0.00, 1000.8,    0.3, -999.0
13-11-2023, 00:46:08,    151,    0.0,    7.4,   0.00,   0.00, 1000.8,    0.2, -999.0
13-11-2023, 00:46:17,    128,    0.0,    7.5,   0.00,   0.00, 1000.8,    0.2, -999.0
13-11-2023, 00:46:28,    127,    0.0,    7.4,   0.00,   0.00, 1000.8,    0.3, -999.0
13-11-2023, 00:46:37,    128,    0.0,    7.5,   0.00,   0.00, 1000.8,    0.3, -999.0
13-11-2023, 00:46:47,    127,    0.0,    7.5,   0.00,   0.00, 1000.8,    0.1, -999.0